Showing default

FLOCK 4BE 6, 60516

Orbit data source: Space-Track

FLOCK 4BE 6, 60516 is a payload satellite owned by Planet (US) in SSO that was launched on Fri, 16 Aug 2024 UTC via an FALCON 9 launch vehicle from the Air Force Western Test Range (AFWTR). Payload-class satellites include a variety of spacecraft equipped with specific instruments for various scientific and technological missions. These include communications satellites like Starlink; space stations such as the ISS; scientific satellites like the Hubble; Earth observation satellites from companies like Planet Labs, Umbra, and HawkEye 360; GPS; miniature CubeSats for education and research; and military/defense satellites.

Loading next visibility...
Identifier
60516, 2024-149BA
Orbit
SSO
Country
Flag of USUS
Related business
Manufacturer
Planet
Mission
Operational Commercial Imaging
Bus & Motor
CUBESAT 3U, Unknown motor
Mass
5.7 kg wet, 5.7 kg dry
Launch date (UTC)
2024-08-16 (2 years ago)
Launch vehicle
FALCON 9
Launch site
Air Force Western Test Range (AFWTR)
Object type
Payload
Rocket body
Debris
Shape & HBR
Box + 2 Pan, 1.0 m
Radar Cross Section
0.072 m², Medium (>0.1 m² and < 1m²)

Expand to show TLE details & history
Last TLE update: 16 hours ago

TLE from 16 hours ago
0 FLOCK 4BE 6
1 60516U 24149BA  26067.80375394  .00020570  00000-0  57721-3 0  9997
2 60516  97.3829 150.8549 0002195 294.4068  65.6946 15.36591661 86845
Epoch: 2026-03-08T19:17Z
TLE epoch observation values (Epoch: 2026-03-08T19:17:24.340Z)
Latitude
-0.00012°
Longitude
54.9977°
Altitude
458.693 km
Speed
7.638 km/s
True Right ascension
10h 03m 25s
True Declination
0° 00' 00"
Sunlit
Object was in full shadow at epoch
Visualization orbit readout
Latitude
Unknown
Longitude
Unknown
Altitude
Unknown
Speed
Unknown
Apparent Right ascension
Unknown
Apparent Declination
Unknown
Sunlit
N/A
Visualization observer readout
Local Sidereal Time
15:38:49
Azimuth
Unknown
Elevation
Unknown
Doppler factor
Unknown
Orbital elements
Apogee altitude
454.639 km
Perigee altitude
451.64 km
Semi-major axis
6,831.277 km
Eccentricity
0.00022
Inclination
97.3829°
RAAN
150.8549°
Arg. of periapsis
294.4068°
True anomaly
65.71753°
Mean anomaly
65.6946°
Eccentric anomaly
65.70606°
Mean motion
3.84406 °/min
Orbital period
93.65 mins
BSTAR
0.00057721
Loading maneuver chart data...
Computing Atmospheric mass density...
Loading historical data...
Loading historical data...
Loading historical data...
Loading historical data...
Loading historical data...
Loading historical data...
Loading historical data...

Documentation

Showing up to 5 results
|